Orbital Elements at Epoch 2459200.5 (2020-Dec-17.0) TDB
Reference: JPL 16 (heliocentric ecliptic J2000)
Element | Value | Uncertainty (1-sigma) | Units |
e | .2634380011605618 | 4.7789e-08 | |
a | 2.621108609761809 | 8.7204e-09 | au |
q | 1.93060899678142 | 1.2731e-07 | au |
i | 2.631719290533965 | 3.6773e-06 | deg |
node | 239.6935336999704 | 0.00010771 | deg |
peri | 119.6277861599238 | 0.00010805 | deg |
M | 13.60751407116123 | 6.2667e-06 | deg |
tp | 2459141.912867318892 (2020-Oct-19.41286732) | 2.6983e-05 | TDB |
period | 1549.979493307913 4.24 | 7.7351e-06 2.118e-08 | d yr |
n | .2322611373597598 | 1.1591e-09 | deg/d |
Q | 3.311608222742199 | 1.1018e-08 | au |
|
| | Orbit Determination Parameters
Additional Information
|